Location: Aciu?a
(46.2833°N, 22.4500°E)
Time: 12:18:14
(UTC+00:00)

Meteor 2-10 Rocket - Pass Details

Date: 25 October 2021
Orbit: 733 x 885 km, 81.2° (Epoch: 07 December)

Event Time Altitude Azimuth Distance (km) Brightness Sun altitude
Rises 17:03:28 0° 189° (S) 3,396 7.0 -17.4°
Reaches altitude 10° 17:05:55 10° 190° (S) 2,444 6.2 -17.8°
Maximum altitude 17:11:27 89° 280° (W) 819 3.6 -18.7°
Drops below altitude 10° 17:16:48 10° 11° (N) 2,359 5.9 -19.7°
Sets 17:19:08 0° 12° (NNE) 3,270 6.7 -20.1°
